SCP
0 0 0 0 0 0 0 0 0 0 0 0 0 0 0 0 0 0 0 0 0 0 0 0 0 0 0 0 0 0 0 0 0 0 1 1 1 1 0 0 0 0 0
0 0 0 0 0 0 0 0 0 0 0 0 0 0 0 0 0 0 0 0 0 0 0 0 0 0 0 0 0 0 0 0 0 1 1 1 1 1 1 0 0 0 0
0 0 0 0 0 0 0 0 0 0 0 0 0 0 0 0 0 0 0 0 0 0 0 0 0 0 0 0 0 0 0 0 0 0 0 1 1 1 1 1 1 1 1
0 0 0 0 0 0 0 0 0 0 0 0 0 0 0 0 0 0 0 0 0 0 0 0 0 0 0 0 0 0 0 0 0 0 0 0 1 1 1 1 1 1 1
0 0 0 0 0 0 0 0 0 0 0 0 0 0 0 0 0 0 0 0 0 0 0 0 0 0 0 0 0 0 0 0 0 0 0 0 0 1 1 1 1 1 1
0 0 0 0 0 0 0 0 0 0 0 0 0 0 0 0 0 0 0 0 0 0 0 0 0 0 0 0 0 0 0 0 0 0 0 0 0 0 1 1 1 0 1
0 0 0 0 0 0 0 0 0 0 0 0 0 0 0 0 0 0 0 0 0 0 0 0 0 0 0 0 0 0 0 0 0 0 0 0 0 0 0 1 1 0 0
0 0 0 0 0 0 0 0 0 0 0 0 0 -0 0 -0 0 0 0 0 0 0 0 0 0 0 0 0 0 0 0 0 0 0 0 0 0 0 0 0 1 1 0
0 0 0 0 0 0 0 0 0 0 0 0 0 0 0 0 0 0 0 0 0 0 0 0 0 0 0 0 0 0 0 0 0 0 0 0 0 0 0 0 0 0 0
0 0 0 0 0 0 0 0 0 0 0 0 0 0 0 0 0 0 0 0 0 0 0 0 0 0 0 0 0 0 0 0 0 0 0 0 0 0 0 0 0 0 0
0 0 0 0 0 0 0 0 0 0 0 0 0 0 0 0 0 0 0 0 0 0 0 0 0 0 0 0 0 0 0 0 0 0 0 0 0 0 0 0 0 0 0
0 0 0 0 0 0 0 0 0 0 0 0 0 0 0 0 0 0 0 0 0 0 0 0 0 0 0 0 0 0 0 0 0 0 0 0 0 0 0 0 0 0 0
0 0 0 0 0 0 0 0 0 0 0 0 0 0 0 0 0 0 0 0 0 0 0 0 0 0 0 0 0 0 0 0 0 0 0 0 0 0 0 0 0 0 0
0 0 0 0 0 0 0 0 0 0 0 0 0 0 0 0 0 0 0 0 0 0 0 0 0 0 0 0 0 0 0 0 0 0 0 0 0 0 0 0 0 0 0
0 0 0 0 0 0 0 0 0 0 0 0 0 0 0 0 0 0 0 0 0 0 0 0 0 0 0 0 0 0 0 0 0 0 0 0 0 0 0 0 0 0 0
0 0 0 0 0 0 0 0 0 0 0 0 0 0 0 0 0 0 0 0 0 0 0 0 0 0 0 0 0 0 0 0 0 0 0 0 0 0 0 0 0 0 0
0 0 0 0 0 0 0 0 0 0 0 0 0 0 0 0 0 0 0 0 0 0 0 0 0 0 0 0 0 0 0 0 0 0 0 0 0 0 0 0 0 0 0
0 0 0 0 0 0 0 0 0 0 0 0 0 0 0 0 0 0 0 0 0 0 0 0 0 0 0 0 0 0 0 0 0 0 0 0 0 0 0 0 0 0 0
0 0 0 0 0 0 0 0 0 0 0 0 0 0 0 0 0 0 0 0 0 0 0 0 0 0 0 0 0 0 0 0 0 0 0 0 0 0 0 -0 -0 0 0
0 0 0 0 0 0 0 0 0 0 0 0 0 0 0 0 0 0 0 0 0 0 0 0 0 0 0 0 0 0 0 0 -0 0 0 0 0 0 0 0 -0 0 0
0 0 0 0 0 0 0 0 0 0 0 0 0 0 0 0 0 0 0 0 0 0 0 0 0 0 0 0 0 0 0 0 0 0 0 0 0 0 0 -0 -0 0 0
0 0 0 0 0 0 0 0 0 0 0 0 0 0 0 0 0 0 0 0 0 0 0 0 0 0 0 0 0 0 0 -0 -0 -0 0 0 0 0 0 0 0 0 0
0 0 0 0 0 0 0 0 0 0 0 0 0 0 0 0 0 0 0 0 0 0 0 0 0 0 0 0 0 0 0 0 -0 -0 0 0 0 0 0 0 0 0 0
0 0 0 0 0 0 0 0 0 0 0 0 0 0 0 0 0 0 0 0 0 0 0 0 0 0 0 0 0 0 0 0 -0 0 0 0 0 0 0 0 0 0 0
0 0 0 0 0 0 0 0 0 0 0 0 0 0 0 0 0 0 0 0 0 0 0 0 0 0 0 0 0 0 0 0 0 0 0 0 0 0 0 0 0 0 0
0 0 0 0 0 0 0 0 0 0 0 0 0 0 0 0 0 0 0 0 0 0 0 0 0 0 0 0 0 0 0 -0 0 0 0 0 0 0 0 0 0 0 0
Wind_Speed_500mb
12 12 13 15 18 21 24 26 28 29 30 32 35 37 38 38 38 40 42 41 43 45 48 52 56 61 64 67 74 78 77 67 67 76 80 79 78 83 82 76 72 64 69
13 13 14 16 19 22 26 29 31 32 33 36 37 38 39 39 39 40 43 43 41 42 44 46 49 54 59 66 71 76 85 87 78 66 78 85 88 85 88 90 86 77 71
13 14 15 18 21 25 27 29 33 35 37 38 39 38 39 40 40 42 41 43 47 43 42 45 48 49 50 54 62 71 78 82 90 91 73 79 88 96 95 94 96 91 81
15 16 17 20 24 26 28 32 35 36 38 40 39 38 39 41 41 41 47 41 38 59 62 55 54 58 59 61 61 64 70 77 78 81 101 86 82 94 100 102 95 98 93
19 19 19 22 26 28 30 33 34 38 40 40 40 41 42 43 38 49 38 48 69 58 58 61 73 70 69 72 70 65 60 61 67 73 82 104 94 88 99 102 105 105 100
21 20 21 22 27 28 30 32 34 36 39 42 45 47 49 42 51 38 63 73 56 68 64 67 67 73 73 78 82 82 76 60 54 64 71 82 104 106 84 102 111 106 97
21 21 20 24 25 28 30 32 33 34 36 42 54 60 58 53 45 59 77 64 73 66 60 75 59 63 67 72 80 84 81 70 65 63 60 68 76 114 98 94 101 102 134
23 21 21 24 25 27 29 32 32 31 36 42 52 54 42 62 61 95 78 80 75 58 82 70 76 66 68 77 76 71 71 64 62 66 62 65 69 74 90 91 90 105 136
23 22 23 24 24 25 28 30 28 27 31 39 46 38 24 26 94 81 92 76 53 80 77 88 73 79 79 77 82 81 74 72 69 67 69 76 69 67 78 79 94 95 106
22 23 24 24 24 25 27 27 26 25 30 38 43 46 49 47 37 66 86 84 67 84 90 85 91 90 83 84 85 82 78 63 66 64 66 63 70 82 67 76 87 90 93
23 24 27 25 24 24 26 25 24 25 31 37 42 48 52 53 49 36 81 114 112 85 73 83 95 88 83 78 76 76 68 65 62 63 65 67 66 75 70 74 74 81 79
26 27 28 26 27 26 25 24 23 26 33 39 44 48 50 52 57 41 64 95 98 112 103 80 74 78 76 79 78 75 71 68 68 66 62 60 65 69 80 76 72 82 80
30 29 29 28 27 26 25 25 25 29 35 40 47 51 56 61 54 47 62 88 95 105 91 91 73 72 71 75 78 80 82 78 67 68 63 67 64 63 74 75 75 70 74
35 33 30 30 29 27 26 27 27 31 37 42 48 55 61 61 49 52 56 67 96 90 81 89 79 76 80 79 79 78 72 70 68 66 64 66 64 73 57 63 60 69 80
40 36 33 33 31 29 28 28 30 33 39 45 51 57 61 58 56 52 47 51 63 85 86 97 81 83 79 77 75 72 74 68 64 58 62 63 62 69 58 36 55 69 75
45 40 37 35 33 30 30 30 31 35 40 46 52 58 59 58 57 51 46 46 46 57 67 87 83 79 78 77 72 71 73 69 61 54 54 58 54 58 70 42 45 68 69
49 43 40 38 34 33 32 31 32 36 41 47 53 58 58 55 56 48 46 45 50 47 66 80 79 82 86 84 81 75 70 64 62 58 47 51 50 46 48 51 52 45 60
51 46 43 40 37 36 34 32 33 35 40 48 54 57 57 55 53 45 43 43 46 47 52 71 77 82 85 81 80 79 68 56 52 38 40 43 49 28 49 54 67 36 47
55 50 46 42 39 37 35 33 33 33 40 47 52 55 57 54 49 44 40 41 43 51 53 61 82 82 89 82 82 78 74 58 32 26 26 40 35 31 34 42 69 44 62
58 52 48 43 41 40 36 32 32 33 38 44 50 53 55 54 45 42 39 42 45 51 55 61 77 88 91 76 66 73 73 60 34 24 19 21 26 30 30 40 51 39 37
58 53 50 47 44 41 36 32 31 33 37 42 48 51 54 54 43 38 36 39 43 49 58 66 75 82 82 79 71 59 60 58 37 28 12 9 5 24 30 35 45 53 26
61 58 54 49 46 41 37 32 31 31 36 44 48 49 52 53 45 40 37 36 34 42 54 58 68 71 71 70 65 57 52 52 34 22 10 13 13 13 29 31 49 46 33
63 61 55 51 46 43 38 33 31 31 34 43 49 51 52 53 47 39 36 32 35 35 39 50 57 57 64 66 63 53 43 33 25 18 10 14 8 10 18 24 41 41 37
67 62 56 51 47 45 39 34 31 31 32 40 47 50 54 55 47 37 35 32 33 29 34 42 46 54 54 55 46 41 35 26 18 15 8 25 28 22 21 13 15 37 33
68 64 57 52 49 46 41 35 33 30 30 37 43 47 51 54 51 36 32 31 26 28 28 37 41 47 48 43 38 32 31 25 18 16 28 31 42 47 36 33 41 29 33
67 61 57 54 50 46 43 38 35 29 29 34 38 42 45 50 47 40 31 29 29 33 36 35 35 36 40 34 29 25 21 18 13 8 9 13 18 16 26 56 47 40 31
Wind_Direction_500mb
254 260 271 283 292 297 298 297 299 303 306 306 308 310 311 310 308 307 306 306 303 299 296 292 287 284 279 273 263 259 255 256 266 263 259 257 255 249 248 246 245 245 232
250 260 276 285 293 299 300 305 308 312 315 315 317 317 316 315 317 316 317 315 311 309 305 301 296 291 285 281 275 268 262 260 253 263 261 258 256 254 249 246 246 245 241
255 273 284 294 298 302 307 311 315 317 319 317 318 318 320 321 324 322 321 317 314 313 312 306 303 299 293 287 283 276 270 265 259 250 258 259 254 255 252 248 247 245 242
269 277 288 296 303 307 310 315 315 317 316 316 319 321 322 324 326 320 319 315 317 313 309 303 302 299 292 285 281 279 277 272 269 263 248 253 257 253 252 253 247 246 241
270 276 289 302 307 309 311 313 314 316 319 320 322 323 324 325 321 321 324 319 318 320 317 306 304 300 292 287 284 282 285 285 279 273 263 245 250 253 251 253 253 245 242
264 277 291 302 304 305 307 310 316 319 322 323 324 324 325 327 327 330 327 323 322 317 311 309 310 302 296 292 289 286 281 285 282 277 273 262 245 246 255 245 242 237 239
260 274 288 295 299 300 306 311 313 319 324 328 330 329 335 334 327 327 326 322 319 318 314 313 314 307 302 296 293 289 282 283 284 284 273 270 268 245 250 246 254 240 244
259 270 282 291 296 301 306 309 315 323 327 338 342 343 338 339 325 327 327 325 321 320 315 321 314 311 308 305 302 298 295 290 281 277 271 267 255 259 254 250 243 246 251
261 269 280 289 295 298 302 307 312 320 329 336 341 345 340 320 326 327 328 323 320 314 315 318 315 314 314 308 307 305 298 292 284 279 278 256 266 257 252 253 249 243 243
262 271 279 286 289 293 298 301 307 318 328 331 335 334 331 324 324 320 329 313 318 313 316 317 314 315 315 313 309 306 303 295 288 282 275 272 264 248 249 250 247 246 243
263 269 275 283 286 287 290 293 301 315 322 327 329 326 324 321 322 291 300 315 313 314 307 308 314 316 317 315 308 307 306 298 291 284 279 273 270 254 254 251 244 243 244
260 268 273 280 280 282 284 285 294 308 317 322 324 323 320 317 312 298 294 299 301 309 312 312 308 315 312 314 314 311 304 301 289 287 283 280 271 257 249 250 242 238 240
261 269 272 275 275 276 277 279 290 304 313 319 322 321 321 319 319 304 297 296 299 306 309 312 313 311 308 306 310 306 302 303 293 287 280 275 261 258 244 245 245 237 230
259 267 269 273 272 270 269 274 289 301 310 318 321 320 321 320 319 304 301 300 301 302 309 308 313 316 316 313 310 304 304 304 297 290 276 278 269 244 241 236 241 239 229
255 265 266 268 266 264 263 271 285 299 309 316 320 323 322 327 322 315 304 294 295 303 311 320 316 329 327 324 321 315 307 302 298 290 281 276 269 244 241 238 245 236 235
253 262 263 263 262 259 259 269 285 299 308 316 322 324 326 328 323 315 310 302 300 300 297 316 325 330 331 327 324 319 312 302 292 288 284 269 263 245 231 248 239 236 235
251 259 259 259 258 254 257 269 284 296 309 319 324 326 330 326 325 321 315 312 305 300 291 320 326 332 329 329 325 323 319 311 294 279 268 266 243 235 235 232 237 229 231
250 255 255 254 253 251 255 267 282 297 312 321 326 329 331 327 328 320 316 315 308 311 304 307 327 331 333 339 335 330 328 317 305 279 278 268 252 250 226 230 235 233 222
248 251 250 251 250 249 254 266 282 300 314 321 328 331 332 327 326 320 318 317 317 315 313 312 320 330 335 343 339 342 344 341 325 294 271 260 247 227 219 231 239 254 222
245 247 247 248 247 247 252 265 282 299 313 323 329 330 334 328 319 316 317 319 317 319 322 324 327 327 330 336 338 343 346 352 343 341 306 280 234 212 220 217 227 249 211
242 243 242 243 244 244 251 264 281 297 313 324 329 333 337 329 315 299 306 311 311 318 326 331 324 323 327 330 327 333 338 341 339 347 343 321 263 203 208 221 225 244 211
238 238 239 241 241 242 249 259 274 295 313 322 330 336 337 330 317 292 299 297 303 311 319 323 319 321 326 330 329 324 328 335 339 333 1 353 293 200 197 203 220 231 216
236 235 237 238 238 239 246 258 275 294 309 321 328 337 339 333 321 300 299 298 304 307 318 318 322 322 321 327 328 326 325 334 336 321 337 49 100 126 183 206 207 211 213
234 233 236 236 235 238 245 255 271 285 307 320 328 337 338 336 326 301 300 310 312 321 324 325 328 323 321 324 334 335 334 335 341 340 81 76 83 89 95 156 201 210 210
229 230 233 234 236 237 243 250 262 279 303 316 327 334 337 335 329 310 298 305 313 318 321 322 329 327 324 328 332 334 325 327 339 49 100 89 88 83 98 112 129 147 196
227 230 232 234 235 234 242 247 258 272 293 310 324 330 335 334 332 317 304 306 306 308 315 327 332 332 331 339 348 353 352 344 4 12 27 103 108 87 71 94 115 136 147
Wind_Speed_850mb
12 12 13 15 18 21 24 26 28 29 30 32 35 37 38 38 38 40 42 41 43 45 48 52 56 61 64 67 74 78 77 67 67 76 80 79 78 83 82 76 72 64 69
13 13 14 16 19 22 26 29 31 32 33 36 37 38 39 39 39 40 43 43 41 42 44 46 49 54 59 66 71 76 85 87 78 66 78 85 88 85 88 90 86 77 71
13 14 15 18 21 25 27 29 33 35 37 38 39 38 39 40 40 42 41 43 47 43 42 45 48 49 50 54 62 71 78 82 90 91 73 79 88 96 95 94 96 91 81
15 16 17 20 24 26 28 32 35 36 38 40 39 38 39 41 41 41 47 41 38 59 62 55 54 58 59 61 61 64 70 77 78 81 101 86 82 94 100 102 95 98 93
19 19 19 22 26 28 30 33 34 38 40 40 40 41 42 43 38 49 38 48 69 58 58 61 73 70 69 72 70 65 60 61 67 73 82 104 94 88 99 102 105 105 100
21 20 21 22 27 28 30 32 34 36 39 42 45 47 49 42 51 38 63 73 56 68 64 67 67 73 73 78 82 82 76 60 54 64 71 82 104 106 84 102 111 106 97
21 21 20 24 25 28 30 32 33 34 36 42 54 60 58 53 45 59 77 64 73 66 60 75 59 63 67 72 80 84 81 70 65 63 60 68 76 114 98 94 101 102 134
23 21 21 24 25 27 29 32 32 31 36 42 52 54 42 62 61 95 78 80 75 58 82 70 76 66 68 77 76 71 71 64 62 66 62 65 69 74 90 91 90 105 136
23 22 23 24 24 25 28 30 28 27 31 39 46 38 24 26 94 81 92 76 53 80 77 88 73 79 79 77 82 81 74 72 69 67 69 76 69 67 78 79 94 95 106
22 23 24 24 24 25 27 27 26 25 30 38 43 46 49 47 37 66 86 84 67 84 90 85 91 90 83 84 85 82 78 63 66 64 66 63 70 82 67 76 87 90 93
23 24 27 25 24 24 26 25 24 25 31 37 42 48 52 53 49 36 81 114 112 85 73 83 95 88 83 78 76 76 68 65 62 63 65 67 66 75 70 74 74 81 79
26 27 28 26 27 26 25 24 23 26 33 39 44 48 50 52 57 41 64 95 98 112 103 80 74 78 76 79 78 75 71 68 68 66 62 60 65 69 80 76 72 82 80
30 29 29 28 27 26 25 25 25 29 35 40 47 51 56 61 54 47 62 88 95 105 91 91 73 72 71 75 78 80 82 78 67 68 63 67 64 63 74 75 75 70 74
35 33 30 30 29 27 26 27 27 31 37 42 48 55 61 61 49 52 56 67 96 90 81 89 79 76 80 79 79 78 72 70 68 66 64 66 64 73 57 63 60 69 80
40 36 33 33 31 29 28 28 30 33 39 45 51 57 61 58 56 52 47 51 63 85 86 97 81 83 79 77 75 72 74 68 64 58 62 63 62 69 58 36 55 69 75
45 40 37 35 33 30 30 30 31 35 40 46 52 58 59 58 57 51 46 46 46 57 67 87 83 79 78 77 72 71 73 69 61 54 54 58 54 58 70 42 45 68 69
49 43 40 38 34 33 32 31 32 36 41 47 53 58 58 55 56 48 46 45 50 47 66 80 79 82 86 84 81 75 70 64 62 58 47 51 50 46 48 51 52 45 60
51 46 43 40 37 36 34 32 33 35 40 48 54 57 57 55 53 45 43 43 46 47 52 71 77 82 85 81 80 79 68 56 52 38 40 43 49 28 49 54 67 36 47
55 50 46 42 39 37 35 33 33 33 40 47 52 55 57 54 49 44 40 41 43 51 53 61 82 82 89 82 82 78 74 58 32 26 26 40 35 31 34 42 69 44 62
58 52 48 43 41 40 36 32 32 33 38 44 50 53 55 54 45 42 39 42 45 51 55 61 77 88 91 76 66 73 73 60 34 24 19 21 26 30 30 40 51 39 37
58 53 50 47 44 41 36 32 31 33 37 42 48 51 54 54 43 38 36 39 43 49 58 66 75 82 82 79 71 59 60 58 37 28 12 9 5 24 30 35 45 53 26
61 58 54 49 46 41 37 32 31 31 36 44 48 49 52 53 45 40 37 36 34 42 54 58 68 71 71 70 65 57 52 52 34 22 10 13 13 13 29 31 49 46 33
63 61 55 51 46 43 38 33 31 31 34 43 49 51 52 53 47 39 36 32 35 35 39 50 57 57 64 66 63 53 43 33 25 18 10 14 8 10 18 24 41 41 37
67 62 56 51 47 45 39 34 31 31 32 40 47 50 54 55 47 37 35 32 33 29 34 42 46 54 54 55 46 41 35 26 18 15 8 25 28 22 21 13 15 37 33
68 64 57 52 49 46 41 35 33 30 30 37 43 47 51 54 51 36 32 31 26 28 28 37 41 47 48 43 38 32 31 25 18 16 28 31 42 47 36 33 41 29 33
67 61 57 54 50 46 43 38 35 29 29 34 38 42 45 50 47 40 31 29 29 33 36 35 35 36 40 34 29 25 21 18 13 8 9 13 18 16 26 56 47 40 31
Wind_Direction_850mb
254 260 271 283 292 297 298 297 299 303 306 306 308 310 311 310 308 307 306 306 303 299 296 292 287 284 279 273 263 259 255 256 266 263 259 257 255 249 248 246 245 245 232
250 260 276 285 293 299 300 305 308 312 315 315 317 317 316 315 317 316 317 315 311 309 305 301 296 291 285 281 275 268 262 260 253 263 261 258 256 254 249 246 246 245 241
255 273 284 294 298 302 307 311 315 317 319 317 318 318 320 321 324 322 321 317 314 313 312 306 303 299 293 287 283 276 270 265 259 250 258 259 254 255 252 248 247 245 242
269 277 288 296 303 307 310 315 315 317 316 316 319 321 322 324 326 320 319 315 317 313 309 303 302 299 292 285 281 279 277 272 269 263 248 253 257 253 252 253 247 246 241
270 276 289 302 307 309 311 313 314 316 319 320 322 323 324 325 321 321 324 319 318 320 317 306 304 300 292 287 284 282 285 285 279 273 263 245 250 253 251 253 253 245 242
264 277 291 302 304 305 307 310 316 319 322 323 324 324 325 327 327 330 327 323 322 317 311 309 310 302 296 292 289 286 281 285 282 277 273 262 245 246 255 245 242 237 239
260 274 288 295 299 300 306 311 313 319 324 328 330 329 335 334 327 327 326 322 319 318 314 313 314 307 302 296 293 289 282 283 284 284 273 270 268 245 250 246 254 240 244
259 270 282 291 296 301 306 309 315 323 327 338 342 343 338 339 325 327 327 325 321 320 315 321 314 311 308 305 302 298 295 290 281 277 271 267 255 259 254 250 243 246 251
261 269 280 289 295 298 302 307 312 320 329 336 341 345 340 320 326 327 328 323 320 314 315 318 315 314 314 308 307 305 298 292 284 279 278 256 266 257 252 253 249 243 243
262 271 279 286 289 293 298 301 307 318 328 331 335 334 331 324 324 320 329 313 318 313 316 317 314 315 315 313 309 306 303 295 288 282 275 272 264 248 249 250 247 246 243
263 269 275 283 286 287 290 293 301 315 322 327 329 326 324 321 322 291 300 315 313 314 307 308 314 316 317 315 308 307 306 298 291 284 279 273 270 254 254 251 244 243 244
260 268 273 280 280 282 284 285 294 308 317 322 324 323 320 317 312 298 294 299 301 309 312 312 308 315 312 314 314 311 304 301 289 287 283 280 271 257 249 250 242 238 240
261 269 272 275 275 276 277 279 290 304 313 319 322 321 321 319 319 304 297 296 299 306 309 312 313 311 308 306 310 306 302 303 293 287 280 275 261 258 244 245 245 237 230
259 267 269 273 272 270 269 274 289 301 310 318 321 320 321 320 319 304 301 300 301 302 309 308 313 316 316 313 310 304 304 304 297 290 276 278 269 244 241 236 241 239 229
255 265 266 268 266 264 263 271 285 299 309 316 320 323 322 327 322 315 304 294 295 303 311 320 316 329 327 324 321 315 307 302 298 290 281 276 269 244 241 238 245 236 235
253 262 263 263 262 259 259 269 285 299 308 316 322 324 326 328 323 315 310 302 300 300 297 316 325 330 331 327 324 319 312 302 292 288 284 269 263 245 231 248 239 236 235
251 259 259 259 258 254 257 269 284 296 309 319 324 326 330 326 325 321 315 312 305 300 291 320 326 332 329 329 325 323 319 311 294 279 268 266 243 235 235 232 237 229 231
250 255 255 254 253 251 255 267 282 297 312 321 326 329 331 327 328 320 316 315 308 311 304 307 327 331 333 339 335 330 328 317 305 279 278 268 252 250 226 230 235 233 222
248 251 250 251 250 249 254 266 282 300 314 321 328 331 332 327 326 320 318 317 317 315 313 312 320 330 335 343 339 342 344 341 325 294 271 260 247 227 219 231 239 254 222
245 247 247 248 247 247 252 265 282 299 313 323 329 330 334 328 319 316 317 319 317 319 322 324 327 327 330 336 338 343 346 352 343 341 306 280 234 212 220 217 227 249 211
242 243 242 243 244 244 251 264 281 297 313 324 329 333 337 329 315 299 306 311 311 318 326 331 324 323 327 330 327 333 338 341 339 347 343 321 263 203 208 221 225 244 211
238 238 239 241 241 242 249 259 274 295 313 322 330 336 337 330 317 292 299 297 303 311 319 323 319 321 326 330 329 324 328 335 339 333 1 353 293 200 197 203 220 231 216
236 235 237 238 238 239 246 258 275 294 309 321 328 337 339 333 321 300 299 298 304 307 318 318 322 322 321 327 328 326 325 334 336 321 337 49 100 126 183 206 207 211 213
234 233 236 236 235 238 245 255 271 285 307 320 328 337 338 336 326 301 300 310 312 321 324 325 328 323 321 324 334 335 334 335 341 340 81 76 83 89 95 156 201 210 210
229 230 233 234 236 237 243 250 262 279 303 316 327 334 337 335 329 310 298 305 313 318 321 322 329 327 324 328 332 334 325 327 339 49 100 89 88 83 98 112 129 147 196
227 230 232 234 235 234 242 247 258 272 293 310 324 330 335 334 332 317 304 306 306 308 315 327 332 332 331 339 348 353 352 344 4 12 27 103 108 87 71 94 115 136 147